Home > Time Zones > World Clock > Weather > Iran > Ahvaz > Past weeks

Flag for Iran Weather past 2 weeks in Ahvaz, Iran

Now
66 °F

Clear.


Feels Like: 66 °F
Forecast: 61 / 86 °F
Wind: 2 mph from Northwest

Location: Ahwaz

Current Time: Oct 24, 2014 at 1:34:09 AM

Latest Report: Oct 24, 2014 at 12:30 AM


Visibility: 10 mi

Pressure: 29.92 "Hg

Humidity: 56%

Dew point: 50 °F

Location of AhvazLocation

Historic Weather in Ahvaz — Graph

°F

Ahvaz temperature yesterday

Maximum temperature yesterday: 88 °F (at 3:30 PM)
Minimum temperature yesterday: 59 °F (at 4:30 AM)
Average temperature yesterday: 75 °F

Past Weeks' High & Low Weather Summary

 TemperatureHumidityPressure
High102 °F (Oct 12, 2:30 PM)94% (Oct 22, 4:30 AM)30.12 "Hg (Oct 22, 4:30 AM)
Low59 °F (Oct 22, 4:30 AM)15% (Oct 10, 11:00 AM)29.68 "Hg (Oct 20, 4:30 PM)
Average82 °F42%29.90 "Hg
* Reported Oct 8 11:30 PM — Midnight between Oct 23 and Oct 24, Ahvaz, Weather by CustomWeather, © 2014

Note: Actual official high and low records may vary slightly from our data, if they occured in-between our weather recording intervals... More about our weather records

Advertising

Ahvaz weather history for previous 24 hours

 ConditionsComfort  
Time TempWeatherWind HumidityBarometerVisibility
12:00 AM
Oct 24
66 °FClear.2 mph56%29.92 "Hg10 mi
11:30 PM
Oct 23
70 °FClear.2 mph50%29.92 "Hg10 mi
11:00 PM70 °FClear.2 mph60%29.95 "Hg10 mi
10:30 PM68 °FClear.5 mph64%29.95 "Hg10 mi
10:00 PM70 °FClear.2 mph57%29.95 "Hg10 mi
9:30 PM70 °FClear.2 mph57%29.95 "Hg10 mi
9:00 PM73 °FClear.2 mph47%29.95 "Hg10 mi
8:30 PM73 °FClear.5 mph47%29.95 "Hg10 mi
8:00 PM77 °FClear.5 mph36%29.95 "Hg10 mi
7:30 PM77 °FClear.5 mph36%29.95 "Hg10 mi
7:00 PM75 °FClear.5 mph41%29.95 "Hg10 mi
6:30 PM79 °FClear.5 mph37%29.95 "Hg10 mi
6:00 PM81 °FSunny.5 mph34%29.95 "Hg10 mi
5:30 PM82 °FSunny.7 mph32%29.95 "Hg10 mi
5:00 PM84 °FSunny.7 mph29%29.95 "Hg10 mi
4:30 PM86 °FSunny.7 mph27%29.95 "Hg10 mi
4:00 PM88 °FSunny.7 mph25%29.98 "Hg10 mi
3:30 PM88 °FSunny.7 mph25%29.98 "Hg10 mi
3:00 PM86 °FSunny.5 mph33%29.98 "Hg10 mi
2:30 PM86 °FSunny.5 mph33%29.98 "Hg10 mi
2:00 PM86 °FSunny.7 mph31%30.01 "Hg10 mi
1:30 PM84 °FSunny.5 mph33%30.01 "Hg10 mi
1:00 PM84 °FSunny.2 mph31%30.04 "Hg10 mi
12:30 PM82 °FSunny.5 mph32%30.04 "Hg10 mi
12:00 PM82 °FSunny.7 mph32%30.04 "Hg10 mi
11:30 AM81 °FSunny.9 mph34%30.04 "Hg10 mi
11:00 AM81 °FSunny.5 mph37%30.07 "Hg10 mi
10:30 AM77 °FSunny.7 mph39%30.07 "Hg10 mi
10:00 AM75 °FSunny.7 mph41%30.07 "Hg10 mi
9:30 AM72 °FSunny.7 mph47%30.07 "Hg10 mi
9:00 AM72 °FSunny.7 mph41%30.04 "Hg10 mi
8:30 AM68 °FSunny.5 mph49%30.04 "Hg10 mi
8:00 AM64 °FSunny.5 mph60%30.01 "Hg10 mi
7:30 AM63 °FSunny.5 mph64%30.01 "Hg10 mi
7:00 AM61 °FSunny.5 mph68%30.01 "Hg10 mi
5:30 AM63 °FClear.5 mph59%29.98 "Hg10 mi
4:30 AM59 °FClear.No wind72%29.98 "Hg10 mi
3:30 AM61 °FClear.No wind68%30.01 "Hg10 mi
2:30 AM64 °FClear.2 mph60%30.04 "Hg10 mi
1:30 AM68 °FClear.7 mph49%30.04 "Hg10 mi
Weather by CustomWeather, © 2014

See weather overviewHow to use our weather pages